This demonstration page uses our WeatherBlox Daily Observations layout. Learn more.

Left ArrowRight Arrow

39.51506, -84.39828

Hourly Observations for May 20, 2019

Temp ( °F °C ) Dew Point ( °F °C ) Humidity (%) Winds ( mph kmh ) Pressure ( in mb ) Visibility ( mi km ) Precip ( " mm )
12:15 am 00:15 Cloudy 63 17 61 16.2 95 95 SW 6 9 29.86 1011 10 16 0.00 0.00
12:35 am 00:35 Cloudy 63 17 61 16.1 94 94 WSW 7 11 29.87 1012 10 16 0.00 0.00
12:55 am 00:55 Cloudy 62 16.9 61 16.1 95 95 WSW 6 9 29.87 1012 10 16 0.00 0.00
1:15 am 01:15 Cloudy 63 17 61 16.3 96 96 WSW 5 7 29.87 1012 10 16 0.00 0.00
1:35 am 01:35 Partly Cloudy 62 16.7 61 16.1 96 96 W 3 6 29.86 1011 10 16 0.00 0.00
1:55 am 01:55 Partly Cloudy 60 15.8 60 15.5 98 98 W 3 6 29.87 1012 7 11 0.00 0.00
2:15 am 02:15 Clear 60 15.5 59 15.2 98 98 SW 5 7 29.88 1012 7 11 0.00 0.00
2:35 am 02:35 Clear 60 15.5 60 15.3 99 99 WSW 5 7 29.89 1012 7 11 0.00 0.00
2:55 am 02:55 Clear 60 15.5 60 15.3 99 99 W 3 6 29.89 1012 10 16 0.00 0.00
3:15 am 03:15 Clear 59 15.2 59 15 99 99 W 6 9 29.90 1012 10 16 0.00 0.00
3:35 am 03:35 Clear 60 15.6 60 15.4 99 99 W 7 11 29.90 1012 10 16 0.00 0.00
3:55 am 03:55 Clear 60 15.8 60 15.6 99 99 W 7 11 29.89 1012 10 16 0.00 0.00
4:15 am 04:15 Clear 60 15.6 59 15.2 97 97 W 6 9 29.90 1012 10 16 0.00 0.00
4:35 am 04:35 Clear 59 15.2 59 14.8 97 97 W 6 9 29.91 1013 10 16 0.00 0.00
4:55 am 04:55 Clear 60 15.3 59 14.9 97 97 WSW 7 11 29.92 1013 10 16 0.00 0.00
5:15 am 05:15 Clear 60 15.3 59 14.8 97 97 W 7 11 29.93 1013 10 16 0.00 0.00
5:35 am 05:35 Clear 59 15 58 14.4 96 96 WSW 7 11 29.94 1014 10 16 0.00 0.00
5:55 am 05:55 Clear 58 14.4 56 13.6 95 95 WSW 7 11 29.94 1014 10 16 0.00 0.00
6:15 am 06:15 Partly Cloudy 59 14.8 56 13.4 91 91 W 7 11 29.94 1014 10 16 0.00 0.00
6:35 am 06:35 Cloudy 58 14.5 56 13.6 94 94 W 5 7 29.95 1014 10 16 0.00 0.00
6:55 am 06:55 Cloudy 58 14.5 57 13.8 96 96 W 5 7 29.96 1014 10 16 0.00 0.00
7:15 am 07:15 Sunny 58 14.4 54 12.3 87 87 W 9 15 29.97 1015 10 16 0.00 0.00
7:35 am 07:35 Sunny 59 14.8 55 12.5 86 86 W 7 11 29.97 1015 10 16 0.00 0.00
7:55 am 07:55 Sunny 60 15.4 55 12.5 83 83 W 8 13 29.98 1015 10 16 0.00 0.00
8:15 am 08:15 Sunny 60 15.8 55 12.7 82 82 W 9 15 29.97 1015 10 16 0.00 0.00
8:35 am 08:35 Sunny 61 16 54 12.4 79 79 W 10 17 29.98 1015 10 16 0.00 0.00
8:55 am 08:55 Partly Cloudy 61 16.3 54 12.4 78 78 WNW 13 20 29.98 1015 10 16 0.00 0.00
9:15 am 09:15 Mostly Cloudy 61 16.3 54 12.1 76 76 W 9 15 29.98 1015 10 16 0.00 0.00
9:35 am 09:35 Mostly Cloudy 62 16.8 53 11.5 71 71 W 15 24 29.98 1015 10 16 0.00 0.00
9:55 am 09:55 Mostly Cloudy 62 16.7 53 11.5 72 72 W 12 19 29.99 1016 10 16 0.00 0.00
10:15 am 10:15 Mostly Cloudy 62 16.9 52 11.1 69 69 WNW 13 20 30.00 1016 10 16 0.00 0.00
10:35 am 10:35 Mostly Cloudy 62 16.8 51 10.6 67 67 W 10 17 30.00 1016 10 16 0.00 0.00
10:55 am 10:55 Mostly Cloudy 62 16.6 50 10 65 65 W 12 19 30.00 1016 10 16 0.00 0.00
11:15 am 11:15 Partly Cloudy 65 18.1 52 11 63 63 NW 14 22 30.01 1016 10 16 0.00 0.00
11:35 am 11:35 Mostly Cloudy 65 18.1 51 10.8 63 63 WNW 13 20 30.01 1016 10 16 0.00 0.00
11:55 am 11:55 Mostly Cloudy 65 18.4 52 11.1 63 63 W 8 13 30.02 1017 10 16 0.00 0.00
12:15 pm 12:15 Mostly Cloudy 66 18.8 51 10.8 60 60 W 12 19 30.02 1017 10 16 0.00 0.00
12:35 pm 12:35 Mostly Cloudy 65 18.6 51 10.7 60 60 WNW 13 20 30.03 1017 10 16 0.00 0.00
12:55 pm 12:55 Mostly Cloudy 66 18.9 51 10.7 59 59 NW 12 19 30.02 1016 10 16 0.00 0.00
1:15 pm 13:15 Mostly Cloudy 68 19.8 53 11.4 59 59 W 17 28 30.02 1016 10 16 0.00 0.00
1:35 pm 13:35 Mostly Cloudy 68 19.9 53 11.5 59 59 NW 13 20 30.02 1017 10 16 0.00 0.00
1:55 pm 13:55 Mostly Cloudy 66 19.1 52 11 60 60 W 13 20 30.02 1016 10 16 0.00 0.00
2:15 pm 14:15 Cloudy 67 19.5 53 11.9 62 62 WNW 8 13 30.03 1017 10 16 0.00 0.00
2:35 pm 14:35 Mostly Cloudy 67 19.2 52 11.2 60 60 WNW 12 19 30.02 1016 10 16 0.00 0.00
2:55 pm 14:55 Partly Cloudy 66 19 51 10.6 58 58 NW 13 20 30.03 1017 10 16 0.00 0.00
3:15 pm 15:15 Mostly Cloudy 68 19.9 52 11.1 57 57 NW 9 15 30.02 1017 10 16 0.00 0.00
3:35 pm 15:35 Partly Cloudy 67 19.3 52 11 59 59 NW 13 20 30.02 1016 10 16 0.00 0.00
3:55 pm 15:55 Cloudy 66 18.9 52 11 60 60 NW 8 13 30.02 1016 10 16 0.00 0.00
4:15 pm 16:15 Partly Cloudy 68 19.9 52 11 57 57 NW 16 26 30.01 1016 10 16 0.00 0.00
4:35 pm 16:35 Mostly Cloudy 67 19.5 51 10.8 57 57 WNW 10 17 30.02 1016 10 16 0.00 0.00
4:55 pm 16:55 Mostly Cloudy 67 19.3 52 11.1 59 59 NW 9 15 30.04 1017 10 16 0.00 0.00
5:15 pm 17:15 Cloudy 67 19.5 51 10.8 57 57 NW 14 22 30.04 1017 10 16 0.00 0.00
5:35 pm 17:35 Sunny 67 19.3 51 10.7 58 58 NW 12 19 30.04 1017 10 16 0.00 0.00
5:55 pm 17:55 Sunny 66 19.1 51 10.8 59 59 NNW 13 20 30.04 1017 10 16 0.00 0.00
6:15 pm 18:15 Sunny 65 18.6 51 10.7 60 60 NW 7 11 30.05 1018 10 16 0.00 0.00
6:35 pm 18:35 Partly Cloudy 65 18.1 51 10.6 62 62 N 12 19 30.05 1018 10 16 0.00 0.00
6:55 pm 18:55 Sunny 64 17.8 51 10.7 63 63 N 13 20 30.06 1018 10 16 0.00 0.00
7:15 pm 19:15 Sunny 61 16 51 10.7 71 71 N 14 22 30.06 1018 10 16 0.00 0.00
7:35 pm 19:35 Sunny 60 15.4 50 10.1 71 71 NNW 14 22 30.08 1018 10 16 0.00 0.00
7:55 pm 19:55 Sunny 60 15.5 50 10.1 70 70 N 10 17 30.08 1018 10 16 0.00 0.00
8:15 pm 20:15 Sunny 59 14.8 50 9.8 72 72 N 5 7 30.08 1019 10 16 0.00 0.00
8:35 pm 20:35 Partly Cloudy 58 14.2 50 9.8 75 75 N 3 6 30.08 1019 10 16 0.00 0.00
8:55 pm 20:55 Clear 57 13.8 49 9.6 76 76 N 3 6 30.08 1019 10 16 0.00 0.00
9:15 pm 21:15 Clear 56 13.3 48 9.1 76 76 N 5 7 30.08 1019 10 16 0.00 0.00
9:35 pm 21:35 Clear 55 12.7 48 8.9 78 78 NNE 7 11 30.07 1018 10 16 0.00 0.00
9:55 pm 21:55 Clear 55 12.5 49 9.2 80 80 NE 9 15 30.08 1019 10 16 0.00 0.00
10:15 pm 22:15 Clear 54 12.1 48 9 82 82 NE 7 11 30.09 1019 10 16 0.00 0.00
10:35 pm 22:35 Clear 53 11.5 48 8.9 84 84 NE 5 7 30.11 1019 10 16 0.00 0.00
10:55 pm 22:55 Clear 52 11.1 48 8.7 85 85 NE 7 11 30.10 1019 10 16 0.00 0.00
11:15 pm 23:15 Clear 51 10.8 47 8.5 86 86 NNE 5 7 30.11 1020 10 16 0.00 0.00
11:35 pm 23:35 Clear 51 10.4 47 8.4 88 88 N 5 7 30.13 1020 10 16 0.00 0.00
11:55 pm 23:55 Clear 50 10.1 47 8.4 89 89 N 3 6 30.13 1020 10 16 0.00 0.00

Powered by AerisWeather